Regional Weather Roundup
Issued by NWS Northern Indiana

Home | Current Version | Previous Version | Text Only | Print | Product List | Glossary Off
Versions: 1 2 3 4 5 6 7 8 9 10 11 12 13 14 15 16 17 18 19 20 21 22 23 24 25 26 27 28 29 30 31 32 33 34 35 36 37 38 39 40 41 42 43 44 45 46 47 48 49 50

000
ASUS43 KIWX 262210
RWRIWX

KIWX WEATHER ROUNDUP
NATIONAL WEATHER SERVICE NORTHERN INDIANA
600 PM EDT MON SEP 26 2016

NOTE: "FAIR" INDICATES FEW OR NO CLOUDS BELOW 12,000 FEET WITH NO
SIGNIFICANT WEATHER AND/OR OBSTRUCTIONS TO VISIBILITY.

* THESE STATIONS ARE NOT UNDER NWS QUALITY CONTROL. THEY ALSO MAY NOT
  REPORT WEATHER SUCH AS PRECIPITATION OR FOG.

INZ001>027-262300-
NORTHERN INDIANA

CITY           SKY/WX    TMP DP  RH WIND       PRES   REMARKS
GARY*          SUNNY     72  30  21 W32       29.94S
VALPARAISO     SUNNY     69  37  30 W13G25    29.94F
MICHIGAN CITY* SUNNY     68  39  34 MISG      29.94S
LAPORTE*       SUNNY     70  35  28 W14G22    29.94S
KNOX*          SUNNY    N/A N/A N/A W16G25    29.94F
SOUTH BEND     SUNNY     67  38  34 W16       29.93S
ELKHART*       SUNNY    N/A N/A N/A W12       29.92S
GOSHEN         SUNNY     67  36  31 W16G25    29.93S
MONTICELLO*    SUNNY     71  20  14 W16G25    29.96F
LOGANSPORT*    SUNNY     70  36  28 W20G29    29.97F
ROCHESTER*     SUNNY     72  34  25 W13G24    29.95S
WARSAW*        SUNNY     68  28  22 W14G20    29.94S
ANGOLA*          N/A     68  61  77 W12       29.92S
FORT WAYNE     MOSUNNY   70  35  27 SW13G23   29.94F
HUNTINGTON*    SUNNY    N/A N/A N/A W13       29.95F
PERU/GRISSOM   SUNNY     70  36  28 W17G25    29.95F
MARION*        SUNNY     70  37  29 W14G20    29.98F

$$
INZ028>050-262300-
CENTRAL INDIANA

CITY           SKY/WX    TMP DP  RH WIND       PRES   REMARKS
LAFAYETTE      SUNNY     70  38  31 W14G20    29.98F
MUNCIE*        SUNNY     71  40  32 W12G18    29.98F
INDIANAPOLIS   MOSUNNY   70  41  34 W16       30.01F

$$
MIZ043>046-050>051-056>058-064>065-071>073-077>080-262300-
SOUTHWEST LOWER MICHIGAN

CITY           SKY/WX    TMP DP  RH WIND       PRES   REMARKS
BATTLE CREEK   PTSUNNY   65  43  44 W13       29.91S
BENTON HARBOR  MOSUNNY   67  39  35 W20G25    29.91F
COLDWATER*     SUNNY     67  35  31 W10G20    29.91S
HILLSDALE*     SUNNY     66  37  34 SW12G17   29.90F
HOLLAND        MOSUNNY   64  40  41 W15G24    29.89F
GRAND RAPIDS   PTSUNNY   63  40  42 W20G28    29.88S
KALAMAZOO      MOSUNNY   66  37  34 W20G29    29.92S
STURGIS*       SUNNY     67  38  34 W8G20     29.91S
THREE RIVERS*  FAIR      66  38  36 W12       29.92S

$$
OHZ001>008-015>018-024>025-262300-
NORTHWEST OHIO

CITY           SKY/WX    TMP DP  RH WIND       PRES   REMARKS
WAUSEON*       FAIR      70  39  32 W14G23    29.91S
DEFIANCE       SUNNY     70  39  32 W13G22    29.92F
FINDLAY        SUNNY     68  39  34 W16       29.94S
TOLEDO EXPRESS SUNNY     68  43  40 SW17      29.91S
TOLEDO METCALF SUNNY     69  44  40 W14G21    29.92S
LIMA           SUNNY     67  44  43 W14       29.96F

$$
AND FOR LAKE MICHIGAN COASTAL AND OPEN LAKE BUOY OBSERVATIONS

STATION/POSITION TEMP    WIND        PRES    VSBY  WAVE
                 AIR SEA DIR/SP/G                  HT/PER
                 (F)     (DEG/KT/KT) (MB)    (MI)  (FT/S)
CALUMET HARBOR    70     240/  9/ 25 1012.9F
MICHIGAN CITY     67     230/ 25/ 27   N/A
BURNS HARBOR      68     250/ 22/ 26 1013.9S
SAINT JOSEPH      68     250/ 18/ 24 1014.2
SOUTH LAKE BUOY   66 71  260/ 23/ 29 1010.9F         5/ 5
4 MI NW BRIDGMAN  67 64  270/ 17/ 25 1013.0          7/ 6
MICHIGAN CITY     68 66  270/ 19/ 23   N/A           5/ 5

$$
&&



USA.gov is the U.S. government's official web portal to all federal, state and local government web resources and services.